EW4169 Weather Reports


Display with metric or nautical units.
time (UTC)temp
F
wind
direction
speed
MPH
gust
MPH
rain 1hr
in
rain 24hr
in
rain mn
in
humidity
%
barometer
mb
20260505210048 69 262 6.0 11.0 0.01 0.05 0.05 58 1005.5
20260505204510 68 276 7.0 13.0 0.01 0.05 0.05 62 1005.6
20260505203038 72 262 7.0 11.0 0.01 0.05 0.05 52 1005.6
20260505201516 73 252 6.0 13.0 0.00 0.04 0.04 43 1005.0
20260505200043 73 243 5.0 12.0 0.00 0.04 0.04 46 1005.1
20260505194524 72 223 3.0 8.0 0.00 0.04 0.04 49 1005.4
20260505193042 72 229 4.0 11.0 0.00 0.04 0.04 47 1005.5
20260505191522 73 208 8.0 19.0 0.00 0.04 0.04 43 1005.6
20260505190044 73 219 8.0 14.0 0.00 0.04 0.04 42 1005.5
20260505184538 74 232 8.0 18.0 0.00 0.04 0.04 41 1005.3
20260505183057 75 241 7.0 18.0 0.00 0.04 0.04 39 1005.2
20260505181540 76 185 9.0 21.0 0.00 0.04 0.04 39 1005.1
20260505180107 75 148 7.0 18.0 0.00 0.04 0.04 42 1005.5
20260505180002 75 233 10.0 18.0 0.00 0.04 0.04 40 1005.5
20260505174552 75 169 7.0 21.0 0.00 0.04 0.04 40 1005.7
20260505173058 74 206 9.0 18.0 0.00 0.04 0.04 40 1005.9
20260505171536 74 211 6.0 16.0 0.00 0.04 0.04 43 1006.1
20260505170010 73 257 10.0 19.0 0.00 0.04 0.04 44 1006.1
20260505164540 73 247 10.0 23.0 0.00 0.04 0.04 44 1006.3
20260505163011 71 179 7.0 17.0 0.00 0.04 0.04 47 1006.2
20260505161534 72 219 12.0 21.0 0.00 0.04 0.04 47 1006.6
20260505153012 71 226 8.0 19.0 0.00 0.04 0.04 52 1007.3
20260505151532 69 251 9.0 20.0 0.00 0.04 0.04 52 1007.4
20260505124524 63 255 3.0 7.0 0.00 0.04 0.04 77 1007.5
20260505123043 61 263 2.0 4.0 0.00 0.04 0.04 81 1007.5
20260505121525 58 229 2.0 4.0 0.00 0.04 0.04 85 1007.7
20260505120039 57 219 0.0 4.0 0.00 0.04 0.04 85 1007.8
20260505114522 56 226 1.0 4.0 0.01 0.04 0.04 87 1007.9
20260505113047 55 235 0.0 2.0 0.02 0.04 0.04 90 1007.9
20260505111524 53 246 1.0 2.0 0.02 0.04 0.04 89 1007.6
20260505101557 51 276 0.0 1.0 0.00 0.02 0.02 92 1007.2
20260505100049 50 284 0.0 1.0 0.00 0.02 0.02 94 1007.2
20260505094542 49 287 1.0 3.0 0.00 0.02 0.02 94 1007.0
20260505093016 49 287 0.0 0.0 0.00 0.02 0.02 94 1007.2
20260505091551 49 287 0.0 2.0 0.00 0.02 0.02 93 1007.1
20260505090014 50 287 0.0 1.0 0.00 0.02 0.02 93 1007.2
20260505084555 50 287 0.0 1.0 0.00 0.02 0.02 92 1006.9
20260505083015 51 287 0.0 0.0 0.01 0.02 0.02 91 1006.8
20260505081604 51 287 0.0 2.0 0.02 0.02 0.02 90 1006.8
20260505080046 51 287 1.0 2.0 0.02 0.02 0.02 90 1006.9
20260505074555 52 127 1.0 3.0 0.02 0.02 0.02 85 1006.8
20260505073041 53 302 2.0 4.0 0.01 0.01 0.01 81 1007.0
20260505071515 53 217 0.0 1.0 0.00 0.00 0.00 82 1006.7
20260505070036 53 206 0.0 0.0 0.00 0.00 0.00 81 1006.5
20260505064518 53 206 0.0 0.0 0.00 0.00 0.00 81 1006.6
20260505063046 54 206 0.0 1.0 0.00 0.00 0.00 81 1006.8
20260505061522 55 206 0.0 3.0 0.00 0.00 0.00 78 1006.9
20260505060050 54 219 2.0 3.0 0.00 0.00 0.00 81 1006.9
20260505054518 54 240 0.0 0.0 0.00 0.00 0.00 82 1007.0
20260505053051 53 240 0.0 0.0 0.00 0.00 0.00 85 1007.0
20260505051540 54 240 0.0 0.0 0.00 0.00 0.00 83 1007.2
20260505041543 54 226 0.0 0.0 0.00 0.00 0.00 85 1007.3
20260505040032 54 226 0.0 0.0 0.00 0.00 0.00 84 1007.2
20260505034552 56 226 0.0 2.0 0.00 0.00 0.00 82 1007.3
20260505033012 55 259 0.0 0.0 0.00 0.00 0.00 84 1007.1
20260505031553 55 259 0.0 1.0 0.00 0.00 0.00 85 1007.1
20260505030030 54 259 0.0 1.0 0.00 0.00 0.00 86 1007.1
20260505024559 55 259 0.0 0.0 0.00 0.00 0.00 86 1007.1
20260505024502 55 259 0.0 0.0 0.00 0.00 0.00 86 1007.1
20260505023039 55 259 0.0 1.0 0.00 0.00 0.00 85 1007.2
20260505021520 56 259 0.0 0.0 0.00 0.00 0.00 84 1007.1
20260505020050 56 118 0.0 3.0 0.00 0.00 0.00 83 1007.1
20260505014512 58 252 0.0 2.0 0.00 0.00 0.00 80 1007.2
20260505013048 59 275 3.0 4.0 0.00 0.00 0.00 77 1007.1
20260505011537 63 252 4.0 16.0 0.00 0.00 0.00 68 1007.1
20260505010109 65 208 1.0 5.0 0.00 0.00 0.00 48 1006.8
20260505004514 66 200 1.0 4.0 0.00 0.00 0.00 47 1006.6
20260505003054 66 239 2.0 5.0 0.00 0.00 0.00 46 1006.6
20260505001516 67 214 1.0 8.0 0.00 0.00 0.00 45 1006.5
20260505000054 68 228 4.0 14.0 0.00 0.00 0.00 42 1006.4
20260504234536 69 192 5.0 10.0 0.00 0.00 0.00 44 1006.3
20260504233008 70 238 3.0 11.0 0.00 0.00 0.00 43 1006.1
20260504231543 70 224 4.0 12.0 0.00 0.00 0.00 44 1006.0
20260504230034 70 220 7.0 13.0 0.00 0.00 0.00 43 1005.8
20260504224543 70 218 7.0 16.0 0.00 0.00 0.00 42 1006.0
20260504223016 71 175 5.0 15.0 0.00 0.00 0.00 43 1005.9
20260504221555 71 240 6.0 16.0 0.00 0.00 0.00 42 1005.8
20260504220010 73 233 4.0 13.0 0.00 0.00 0.00 40 1005.7
20260504214547 73 235 7.0 13.0 0.00 0.00 0.00 39 1005.8
20260504213046 73 128 4.0 17.0 0.00 0.00 0.00 37 1005.7